Zurück zum Katalog

KUIPER-00113

AktivKommunikationLEO
NORAD 65948·PAYLOAD·🇺🇸 United States

Gestartet Oct 14, 2025 von Cape Canaveral Space Force Station

Loading…

Nächste Überflüge (nächste 24 Stunden)

TLE

AktuellSource: CelesTrak SupGP

Epoche: Sep 14, 2026, 22:20 UTC

1 65948C 25228B   26257.93101852 -.00014000  00000+0 -18332-2 0  2574
2 65948  51.8971 238.7372 0000861  74.7397 167.9531 14.79933358    14

Verfolge KUIPER-00113 in Echtzeit mit AllMySat

Download on the App Store